Main page
Satellite images Climate Cyclones Lightning AirportsFAQ Languages Contact Newsletter About
Weather : Europe Africa North America South America Asia Australia-Oceania Others

guangzhou-cn, Guangzhou, Guangzhou Baiyun International Airport

59287

latitude: , longitude: China, elevation: 23-10N m


METAR: ZGGG 181130Z 13002MPS CAVOK 32/24 Q1003 NOSIG